Satellite: NOAA-17
Catalog number: 27453
Epoch time:      05160.41749901
Element set:     402
Inclination:      098.6597 deg
RA of node:       234.0466 deg
Eccentricity:    0.0012776
Arg of perigee:   080.0051 deg
Mean anomaly:     280.2561 deg
Mean motion:   14.23671299 rev/day
Decay rate:       -2.6e-07 rev/day^2
Epoch rev:           15373
Checksum:              295

/EX
SB KEPS @ AMSAT  $ORB05160.M
Orbital Elements  05160.MISC

HR AMSAT ORBITAL ELEMENTS FOR MANNED AND MISCELLANEOUS SATELLITES
FROM WA5QGD FORT WORTH,TX June 9, 2005
SEND SUBSCRIBE/UNSUBSCRIBE TO majordomo@amsat.org ONLY
BID: ORB05160.M
TO ALL RADIO AMATEURS BT

Satellite: HUBBLE
Catalog number: 20580
Epoch time:      05159.87289796
Element set:     354
Inclination:      028.4685 deg
RA of node:       322.9543 deg
Eccentricity:    0.0003992
Arg of perigee:   182.6417 deg
Mean anomaly:     177.4150 deg
Mean motion:   14.99741689 rev/day
Decay rate:       8.30e-06 rev/day^2
Epoch rev:           62899
Checksum:              353

Satellite: UARS
Catalog number: 21701
Epoch time:      05159.95306540
Element set:     458
Inclination:      056.9795 deg
RA of node:       223.4307 deg
Eccentricity:    0.0004273
Arg of perigee:   085.0727 deg
Mean anomaly:     275.0788 deg
Mean motion:   15.03844432 rev/day
Decay rate:       3.73e-06 rev/day^2
Epoch rev:           75225
Checksum:              301

Satellite: PO-34
Catalog number: 25520
Epoch time:      05160.87138984
Element set:     199
Inclination:      028.4591 deg
RA of node:       001.2015 deg
Eccentricity:    0.0005816
Arg of perigee:   143.0571 deg
Mean anomaly:     217.0422 deg
Mean motion:   15.16303472 rev/day
Decay rate:       9.47e-06 rev/day^2
Epoch rev:           36547
Checksum:              284

Satellite: ISS
Catalog number: 25544
Epoch time:      05160.93932990
Element set:     657
Inclination:      051.6460 deg
RA of node:       298.0551 deg
Eccentricity:    0.0004382
Arg of perigee:   226.7816 deg
Mean anomaly:     230.3213 deg
Mean motion:   15.72645705 rev/day
Decay rate:     1.2308e-04 rev/day^2
Epoch rev:           37454
Checksum:              295

Satellite: WO-39
Catalog number: 26061
Epoch time:      03303.41062303
Element set:     973
Inclination:      100.1904 deg
RA of node:       047.3011 deg
Eccentricity:    0.0034615
Arg of perigee:   281.6926 deg
Mean anomaly:     078.0378 deg
Mean motion:   14.38082544 rev/day
Decay rate:      2.252e-05 rev/day^2
Epoch rev:           19701
Checksum:              268

Satellite: OO-38
Catalog number: 26063
Epoch time:      05160.46128695
Element set:     369
Inclination:      100.2188 deg
RA of node:       019.0933 deg
Eccentricity:    0.0037370
Arg of perigee:   077.5071 deg
Mean anomaly:     283.0286 deg
Mean motion:   14.35721032 rev/day
Decay rate:        4.2e-07 rev/day^2
Epoch rev:           28118
Checksum:              285

Satellite: NO-45
Catalog number: 26932
Epoch time:      05160.52152725
Element set:      50
Inclination:      067.0597 deg
RA of node:       247.1933 deg
Eccentricity:    0.0007278
Arg of perigee:   247.0007 deg
Mean anomaly:     113.0305 deg
Mean motion:   14.29488133 rev/day
Decay rate:        8.2e-07 rev/day^2
Epoch rev:           19270
Checksum:              280

/EX




----
Via the keps mailing list at AMSAT.ORG courtesy of AMSAT-NA.
To unsubscribe, send "unsubscribe keps" to Majordomo@amsat.org

--- ViaMAIL!/WC v1.60d
 * Origin: Chowdanet (401-331-0615) telnet://chowdanet.com  (1:323/120)